Papa, Hungary

8:09 AM CEST on June 28, 2017 (GMT +0200)
Papa

Weather History for LHPA - March, 2013

Change the Weather History Date:

Saturday, March 2, 2013

  Actual Average Record
Temperature  
Mean Temperature 35 °F -  
Max Temperature 42 °F - - ()
Min Temperature 28 °F - - ()
Degree Days  
Heating Degree Days 30    
Moisture  
Dew Point 28 °F    
Average Humidity 76    
Maximum Humidity 100    
Minimum Humidity 53    
Precipitation  
Precipitation 0.00 in - - ()
Sea Level Pressure  
Sea Level Pressure 30.16 in    
Wind  
Wind Speed 11 mph ()    
Max Wind Speed 18 mph    
Max Gust Speed 27 mph    
Visibility 5.9 miles    
Events      
T = Trace of Precipitation, MM = Missing Value Source: Averaged Metar Reports

Daily Weather History Graph

Daily Weather History Graph

Search for Another Location

Airport or City:

Trip Planner

Search our weather history database for the weather conditions in past years. The results will help you decide how hot, cold, wet, or windy it might be!

Date:

Astronomy

Mar. 02, 2013 Rise Set
Actual Time 6:28 AM CET 5:36 PM CET
Civil Twilight 5:57 AM CET 6:07 PM CET
Nautical Twilight 5:22 AM CET 6:42 PM CET
Astronomical Twilight 4:46 AM CET 7:18 PM CET
Moon 11:21 PM CET (3/2) 8:21 AM CET (3/2)
Length of Visible Light 12h 09m
Length of Day
11h 08m
Waning Gibbous, 76% of the Moon is Illuminated
Mar 2
Waning Gibbous
Mar 4
Last Quarter
Mar 11
New
Mar 19
First Quarter
Mar 27
Full

Hourly Weather History & Observations

Time (CET) Temp. Windchill Dew Point Humidity Pressure Visibility Wind Dir Wind Speed Gust Speed Precip Events Conditions
12:15 AM 35.6 °F 26.8 °F 28.4 °F 75% 30.12 in 6.2 mi NNW 13.4 mph - N/A   Mostly Cloudy
12:45 AM 35.6 °F 26.0 °F 28.4 °F 75% 30.12 in 6.2 mi NNW 15.7 mph - N/A   Mostly Cloudy
1:15 AM 35.6 °F 25.3 °F 28.4 °F 75% 30.15 in 6.2 mi NNW 17.9 mph - N/A   Mostly Cloudy
1:45 AM 35.6 °F 25.3 °F 28.4 °F 75% 30.15 in 6.2 mi NNW 17.9 mph - N/A   Mostly Cloudy
2:15 AM 35.6 °F 26.0 °F 28.4 °F 75% 30.15 in 6.2 mi NNW 15.7 mph - N/A   Mostly Cloudy
2:45 AM 33.8 °F 23.7 °F 28.4 °F 81% 30.15 in 6.2 mi NNW 15.7 mph - N/A   Mostly Cloudy
3:15 AM 33.8 °F 25.4 °F 28.4 °F 81% 30.15 in 6.2 mi NNW 11.2 mph - N/A   Scattered Clouds
3:45 AM 32.0 °F 23.2 °F 28.4 °F 87% 30.15 in 6.2 mi NNW 11.2 mph - N/A   Partly Cloudy
4:15 AM 32.0 °F 22.2 °F 28.4 °F 87% 30.15 in 6.2 mi NNW 13.4 mph - N/A   Partly Cloudy
4:45 AM 32.0 °F 22.2 °F 28.4 °F 87% 30.15 in 6.2 mi NNW 13.4 mph - N/A   Partly Cloudy
5:15 AM 32.0 °F 22.2 °F 26.6 °F 80% 30.15 in 6.2 mi NNW 13.4 mph - N/A   Partly Cloudy
5:45 AM - - - N/A% - 6.2 mi NNW 11.2 mph - N/A   Clear
6:15 AM 30.2 °F 22.1 °F 26.6 °F 86% 30.18 in - North 8.9 mph - N/A   Clear
6:45 AM 28.4 °F 19.9 °F 24.8 °F 86% 30.18 in - North 8.9 mph - N/A   Clear
7:15 AM 30.2 °F 23.5 °F 26.6 °F 86% 30.18 in - North 6.7 mph - N/A   Clear
7:45 AM 33.8 °F 27.9 °F 28.4 °F 81% 30.18 in - North 6.7 mph - N/A   Clear
8:15 AM 35.6 °F 27.7 °F 28.4 °F 75% 30.21 in - North 11.2 mph - N/A   Clear
8:45 AM - - - N/A% - - North 8.9 mph - N/A   Clear
9:45 AM 39.2 °F 30.0 °F 28.4 °F 65% 30.21 in 6.2 mi NNW 17.9 mph - N/A   Partly Cloudy
10:15 AM 39.2 °F 31.3 °F 28.4 °F 65% 30.21 in 6.2 mi North 13.4 mph - N/A   Partly Cloudy
10:45 AM 41.0 °F 32.9 °F 28.4 °F 61% 30.21 in 6.2 mi NNW 15.7 mph - N/A   Scattered Clouds
10:47 AM 42.8 °F 35.2 °F 26.6 °F 53% 30.21 in 6.2 mi North 15.7 mph 26.8 mph N/A   Scattered Clouds
11:15 AM 41.0 °F 32.9 °F 26.6 °F 57% 30.21 in 6.2 mi North 15.7 mph 26.8 mph N/A   Scattered Clouds
11:45 AM - - - N/A% - 6.2 mi North 11.2 mph - N/A   Clear
12:15 PM 41.0 °F 32.9 °F 30.2 °F 65% 30.18 in 6.2 mi NNW 15.7 mph 26.8 mph N/A   Scattered Clouds
12:45 PM 41.0 °F 32.9 °F 30.2 °F 65% 30.18 in 6.2 mi NNW 15.7 mph - N/A   Mostly Cloudy
1:15 PM 41.0 °F 33.6 °F 28.4 °F 61% 30.18 in 6.2 mi NNW 13.4 mph - N/A   Mostly Cloudy
1:45 PM 42.8 °F 36.7 °F 28.4 °F 57% 30.18 in 6.2 mi NNW 11.2 mph - N/A   Mostly Cloudy
2:15 PM 42.8 °F 36.7 °F 28.4 °F 57% 30.15 in 6.2 mi NNW 11.2 mph - N/A   Mostly Cloudy
2:45 PM - - - N/A% - 6.2 mi NNW 11.2 mph - N/A   Scattered Clouds
3:15 PM 41.0 °F 34.4 °F 26.6 °F 57% 30.15 in 6.2 mi NW 11.2 mph - N/A   Mostly Cloudy
3:45 PM 41.0 °F 34.4 °F 28.4 °F 61% 30.15 in 6.2 mi NW 11.2 mph - N/A   Mostly Cloudy
4:15 PM 42.8 °F 36.7 °F 28.4 °F 57% 30.15 in 6.2 mi NNW 11.2 mph - N/A   Mostly Cloudy
4:45 PM 41.0 °F 34.4 °F 28.4 °F 61% 30.15 in 6.2 mi NW 11.2 mph - N/A   Mostly Cloudy
5:15 PM 39.2 °F 34.4 °F 26.6 °F 61% 30.15 in 6.2 mi NNW 6.7 mph - N/A   Scattered Clouds
5:45 PM - - - N/A% - 0.2 mi NNW 6.7 mph - N/A   Clear
6:15 PM 33.8 °F 29.7 °F 26.6 °F 75% 30.15 in - NNW 4.5 mph - N/A   Clear
6:45 PM 32.0 °F 27.6 °F 26.6 °F 80% 30.15 in - NNW 4.5 mph - N/A   Clear
7:15 PM 32.0 °F - 26.6 °F 80% 30.15 in - SW 2.2 mph - N/A   Clear
7:45 PM 32.0 °F - 26.6 °F 80% 30.15 in - SW 2.2 mph - N/A   Clear
8:15 PM 30.2 °F - 30.2 °F 100% 30.15 in - South 2.2 mph - N/A   Clear
8:45 PM - - - N/A% - 3.1 mi Variable 4.5 mph - N/A   Clear
9:15 PM 30.2 °F 25.5 °F 28.4 °F 93% 30.15 in - South 4.5 mph - N/A   Clear
9:45 PM 30.2 °F 25.5 °F 28.4 °F 93% 30.15 in - South 4.5 mph - N/A   Clear
10:15 PM 28.4 °F 23.4 °F 28.4 °F 100% 30.15 in - South 4.5 mph - N/A   Clear
10:45 PM 28.4 °F 23.4 °F 26.6 °F 93% 30.15 in - South 4.5 mph - N/A   Clear
11:15 PM 28.4 °F - 28.4 °F 100% 30.15 in - South 2.2 mph - N/A   Clear
11:45 PM 28.4 °F - 28.4 °F 100% 30.15 in - South 2.2 mph - N/A   Clear